Temperature
24 24 23 23 22 22 21 21 20 20 20 19 19 19 18 18 18 18 18 18 18 18 18 18 18 17 18 18 17 17 17 17 17 17 17 17 17 17 17 17 17 17 17
23 23 23 23 22 22 21 21 21 20 20 20 19 19 19 18 18 18 18 18 18 18 18 18 18 18 18 17 17 17 17 17 17 17 17 17 17 17 17 17 17 17 17
23 23 23 23 22 22 21 21 21 20 20 19 19 19 18 18 18 18 18 18 18 18 18 18 18 18 18 17 17 17 17 17 17 17 17 17 17 17 17 17 17 17 17
24 23 23 23 22 22 21 21 20 20 20 19 19 19 19 19 19 18 18 18 18 18 18 18 18 18 17 17 17 17 17 17 17 17 17 17 17 17 17 17 17 17 17
24 23 23 23 22 22 21 21 20 20 19 19 19 19 19 19 18 18 18 18 18 18 18 18 18 17 17 17 17 17 17 17 17 17 17 17 17 17 17 17 17 17 17
24 23 23 22 22 21 21 20 20 20 19 19 19 19 19 18 18 18 18 18 18 18 18 18 17 17 17 17 17 17 17 17 17 17 17 17 17 17 17 17 17 17 17
23 23 22 22 21 21 21 20 20 20 19 19 19 19 18 18 18 18 18 18 18 18 18 18 17 17 17 17 17 17 17 17 17 17 17 17 17 17 17 17 17 16 16
23 23 22 22 22 21 21 20 20 20 19 19 19 19 18 18 18 18 18 18 18 18 18 17 17 17 17 17 17 17 17 17 17 17 17 17 17 17 17 17 16 16 16
23 23 22 22 22 21 21 20 20 20 19 19 19 18 18 18 18 18 18 18 18 18 17 17 17 17 17 17 17 17 17 17 17 16 16 16 16 17 16 16 16 16 16
23 22 22 22 22 22 21 20 20 19 19 19 18 18 18 18 18 18 18 18 18 18 17 17 17 17 17 17 17 17 17 16 16 16 16 16 16 16 16 16 16 16 16
23 23 22 22 22 21 21 20 20 19 19 19 19 18 18 18 18 18 18 18 18 17 17 17 17 17 17 17 17 16 16 16 16 16 16 16 16 16 16 16 16 16 16
23 23 22 22 21 21 21 20 19 19 19 19 18 18 18 18 18 18 18 17 17 17 17 17 17 17 17 17 16 16 16 16 16 16 16 16 16 16 16 16 16 16 15
23 22 22 22 21 21 20 20 20 19 19 18 18 18 18 18 18 18 18 17 17 17 17 17 17 17 16 16 16 16 16 16 16 16 15 16 15 15 15 15 15 15 15
23 22 22 21 21 21 20 20 19 19 19 18 18 18 18 18 18 18 17 17 17 17 17 16 16 16 16 16 16 16 16 15 15 15 15 15 15 15 15 15 15 15 15
22 22 22 21 21 20 20 20 19 19 18 18 18 18 18 18 17 17 17 17 17 17 16 16 16 16 16 16 16 15 15 15 15 15 15 15 15 14 14 14 14 14 14
22 22 22 21 21 20 20 20 19 19 19 18 18 18 17 17 17 17 17 16 16 16 16 16 16 16 15 15 15 15 15 15 15 15 15 14 14 14 14 14 14 14 14
22 22 22 22 21 20 20 20 19 19 18 18 18 17 17 17 17 17 16 16 16 16 16 15 15 15 15 15 15 14 14 14 14 14 14 14 14 14 14 13 13 13 13
22 22 22 21 21 20 20 19 19 19 18 18 18 17 17 17 17 16 16 16 16 15 15 15 15 15 15 14 14 14 14 14 14 14 13 13 13 13 13 13 13 13 12
23 22 22 21 20 20 19 19 19 18 18 18 17 17 17 17 16 16 16 15 15 15 15 15 15 14 14 14 14 14 14 14 13 13 13 13 13 13 12 12 12 12 12
23 22 21 21 20 20 19 19 18 18 18 17 17 17 16 16 16 16 15 15 15 15 15 14 14 14 14 14 14 13 13 13 13 13 13 12 12 12 12 12 12 12 11
22 21 21 20 20 19 19 19 18 18 17 17 17 16 16 16 16 15 15 15 14 14 14 14 14 13 13 13 13 13 13 13 13 13 12 12 12 12 12 11 11 11 11
21 21 20 20 19 19 19 18 18 17 17 16 16 16 16 16 15 15 15 14 14 14 14 14 13 13 13 13 13 13 12 12 12 12 12 12 12 11 11 11 11 11 11
20 19 19 19 19 18 18 18 17 17 16 16 16 15 15 15 15 14 14 14 13 13 13 13 13 13 13 12 12 12 12 12 12 12 11 11 11 11 11 11 10 10 10
19 19 19 18 18 17 17 17 17 16 16 15 15 15 15 14 14 14 14 13 13 13 13 12 12 12 12 12 12 12 11 11 11 11 11 11 10 10 10 10 10 10 10
18 18 18 18 17 17 17 16 16 16 16 15 15 15 14 14 14 13 13 13 13 12 12 12 12 12 12 12 11 11 11 11 11 11 10 10 10 10 10 9 9 9 9
17 17 17 17 17 16 16 16 16 16 15 15 15 14 14 14 13 13 13 12 12 12 12 12 12 11 11 11 11 11 11 10 10 10 10 10 10 9 9 9 9 9 9
Wind_Speed
10 11 13 13 13 11 12 11 10 9 8 5 4 4 4 4 4 5 10 11 11 11 9 5 5 5 4 4 4 3 2 1 2 2 2 2 1 3 4 4 5 8 12
8 10 11 12 12 12 11 11 11 10 9 6 5 3 4 3 4 4 7 10 10 10 9 6 5 5 4 4 4 3 2 2 2 3 2 1 3 3 3 3 5 5 7
15 13 12 12 12 13 13 12 10 10 9 8 5 3 3 2 1 3 3 5 9 9 8 8 6 5 5 4 4 4 4 3 2 3 4 3 3 3 3 2 3 4 4
12 12 12 12 13 12 12 11 10 9 9 8 7 7 6 5 5 4 4 4 7 8 9 9 7 5 4 5 5 5 4 4 3 2 2 3 4 3 2 3 2 2 3
14 13 12 12 11 11 10 9 9 9 8 8 9 8 5 4 3 3 4 4 3 5 8 8 7 5 5 5 5 4 4 4 4 4 2 2 2 3 3 3 2 2 1
11 10 9 9 8 8 8 9 9 8 8 8 8 7 7 6 5 5 5 4 3 3 5 7 6 6 5 5 5 5 5 4 5 4 4 3 3 3 3 4 3 2 2
9 10 10 9 8 9 9 9 9 8 8 8 7 7 7 7 7 6 6 5 3 3 5 5 4 4 5 5 5 5 5 5 5 5 4 4 5 4 3 3 3 3 2
7 8 9 10 9 9 9 9 9 7 8 8 7 6 6 5 4 5 5 5 5 5 5 5 4 5 5 5 5 4 5 5 5 6 5 4 5 4 4 4 4 3 2
8 7 6 8 9 9 9 10 9 8 8 8 7 5 5 5 5 4 4 4 4 4 4 4 4 4 4 4 4 4 4 4 5 5 5 5 4 4 4 4 5 5 4
7 7 6 5 6 9 8 8 9 9 7 7 6 6 5 5 4 4 4 4 3 3 3 3 3 3 3 2 3 3 3 3 3 3 3 4 3 3 3 3 3 4 4
8 8 7 6 6 7 8 8 7 8 8 8 6 5 4 4 4 4 4 3 3 3 3 3 3 3 2 2 2 2 2 3 3 3 3 4 3 2 2 2 2 2 3
9 9 9 8 7 7 8 8 7 8 8 7 6 5 4 4 4 3 3 3 3 3 3 2 2 2 2 2 2 2 2 2 2 3 3 3 3 3 2 2 3 3 3
9 8 8 8 7 7 7 7 7 8 7 7 6 5 4 4 4 3 3 3 3 3 3 3 2 2 2 2 2 2 1 1 2 2 2 3 2 2 2 2 2 2 2
9 8 8 7 7 7 7 7 7 8 8 7 6 5 5 4 4 3 3 3 3 3 3 3 2 2 2 2 1 1 1 1 0 0 0 1 1 2 2 2 2 2 2
9 9 8 7 7 7 7 7 7 7 7 7 6 5 5 4 4 4 3 3 3 4 3 3 2 1 1 1 2 2 2 2 1 1 1 1 2 2 1 1 2 2 2
10 10 9 9 8 8 8 8 7 7 7 7 6 5 5 5 4 4 3 3 3 3 3 3 3 2 1 2 3 3 2 2 2 1 1 2 2 3 3 3 3 3 4
10 10 10 10 9 8 8 8 7 7 7 7 7 6 6 6 4 4 4 3 3 3 3 3 3 2 1 2 3 3 3 2 2 2 1 1 2 2 2 3 4 4 4
10 9 9 8 7 6 7 7 7 7 7 7 6 6 6 5 5 4 4 3 3 4 3 3 3 2 1 3 4 4 3 2 2 2 1 2 1 2 2 3 4 3 3
9 8 8 8 8 9 9 9 7 7 8 7 6 6 6 6 5 5 4 4 4 3 3 2 2 2 1 2 4 4 3 2 2 1 2 2 2 3 4 4 4 3 3
8 8 8 8 9 9 10 11 8 7 7 7 7 6 7 7 6 5 4 3 3 3 3 3 2 2 1 2 4 4 3 2 2 2 2 4 3 3 4 4 4 3 1
8 9 9 8 8 8 10 10 8 7 6 6 7 6 6 6 6 4 4 4 4 4 3 2 2 2 2 2 3 4 3 3 2 1 1 1 3 3 4 4 3 3 3
8 8 8 7 6 8 10 9 7 6 6 7 7 6 6 6 6 5 4 4 4 4 3 2 2 3 2 2 3 4 4 3 3 2 1 0 2 3 3 3 3 4 5
8 7 9 8 6 6 8 9 6 7 7 7 7 6 5 5 5 5 5 4 3 3 2 2 2 1 2 2 3 4 4 4 2 1 2 2 2 2 2 2 4 4 3
6 6 8 8 6 5 6 7 7 7 7 7 7 6 6 5 5 4 4 4 3 3 2 2 2 1 0 1 2 1 2 2 2 1 2 4 4 3 3 3 2 2 2
5 6 7 7 6 6 5 6 7 7 8 7 6 6 6 6 5 4 3 3 2 2 3 3 3 3 2 2 2 2 1 2 2 2 2 1 1 1 1 1 1 1 2
6 7 7 7 6 6 6 5 6 7 7 6 5 5 5 5 5 5 4 6 4 2 2 3 3 2 1 2 2 2 2 2 4 3 2 1 1 2 2 2 1 1 1
Wind_Direction
173 162 160 159 157 157 158 162 161 166 159 155 153 152 165 173 178 185 183 181 179 176 171 169 172 170 170 183 177 160 170 194 146 94 12 340 280 233 223 207 196 203 208
157 161 160 162 163 165 166 166 166 166 167 165 162 162 163 176 186 188 185 183 180 180 177 168 173 174 175 184 181 160 164 204 162 142 122 337 332 305 250 222 212 210 202
167 170 170 170 167 171 172 173 171 170 172 166 153 139 124 116 149 185 190 194 188 187 182 178 178 184 179 187 192 178 174 196 217 174 156 168 228 281 307 268 231 214 207
164 172 174 173 176 178 174 169 172 172 174 168 169 166 170 182 198 192 193 198 192 188 186 180 182 189 187 191 200 191 185 178 206 222 207 188 173 184 280 312 284 238 224
167 173 175 176 175 172 169 168 167 172 174 175 179 176 179 187 181 174 185 199 202 197 192 189 189 192 195 200 203 196 192 187 197 203 201 207 208 191 190 250 285 309 271
162 163 164 159 162 163 164 164 165 172 175 177 179 179 182 177 169 178 187 198 206 207 203 197 196 199 200 204 206 205 203 204 204 207 196 188 194 204 196 219 237 251 275
153 154 158 161 164 164 166 167 169 174 175 175 178 183 184 181 180 184 188 190 197 206 213 203 203 206 204 204 199 204 213 208 207 215 220 214 216 199 191 199 223 236 254
146 157 166 168 168 169 169 171 174 174 175 176 181 181 180 182 185 184 185 193 200 206 207 200 202 207 205 212 206 213 221 215 216 227 225 226 229 212 203 201 200 229 253
152 156 164 168 168 169 172 174 172 171 178 179 175 175 177 179 184 188 189 196 200 202 195 194 201 205 204 207 204 216 227 221 220 229 231 234 239 223 218 210 197 196 224
151 146 153 165 166 166 166 168 170 175 175 175 174 177 180 184 182 176 187 190 191 187 177 188 195 204 206 196 193 210 217 209 224 225 232 242 246 232 222 216 214 203 204
166 159 159 167 164 157 156 162 167 164 168 171 169 169 177 178 173 177 190 188 178 176 173 182 188 192 193 187 186 207 208 216 236 240 233 242 238 234 236 230 221 213 193
164 159 157 158 155 156 159 164 168 164 164 163 161 166 168 165 165 173 182 177 168 167 165 156 156 167 168 170 176 205 218 218 232 242 240 251 243 235 238 231 227 219 197
151 149 154 157 158 162 164 167 167 165 159 156 157 160 163 162 167 169 168 157 150 145 137 138 145 153 148 147 164 179 193 205 228 243 238 248 229 241 245 223 223 224 198
152 151 155 157 157 162 160 157 159 159 155 152 154 159 164 162 158 153 145 142 143 144 141 137 144 140 132 138 150 161 167 155 148 265 203 222 200 214 216 220 219 198 171
161 161 159 162 162 159 155 149 149 150 150 147 151 158 152 146 141 134 130 127 126 126 128 121 109 103 122 135 131 131 133 125 97 54 57 75 90 103 144 170 189 181 175
169 163 161 166 167 164 156 150 148 149 143 142 145 147 134 130 130 129 123 117 117 115 110 112 105 84 77 91 112 118 113 115 120 109 63 57 49 58 70 85 109 143 158
168 168 169 168 170 166 159 158 155 146 142 147 146 142 138 135 133 129 121 121 120 112 111 111 102 89 54 88 104 106 117 116 114 115 105 84 61 56 55 65 71 81 115
168 170 164 160 158 156 151 146 141 140 141 144 144 144 140 138 135 130 125 119 111 114 114 108 109 104 86 103 100 94 99 94 90 94 111 113 58 62 82 81 70 60 58
165 164 159 155 150 150 141 130 132 137 140 144 145 147 145 141 137 132 123 118 113 110 116 111 105 104 75 97 112 104 102 90 67 58 71 100 88 78 91 95 90 70 43
137 144 144 141 143 148 140 132 137 142 148 149 149 148 145 144 142 136 129 122 120 119 110 95 90 97 86 111 122 111 114 108 87 60 60 77 97 105 112 117 119 115 98
124 130 132 139 145 141 133 132 138 150 151 141 138 136 136 137 133 127 127 125 119 111 102 92 60 54 62 105 120 121 121 140 130 110 58 45 91 102 117 126 140 162 140
118 124 125 123 130 135 133 134 141 140 130 126 126 128 132 135 131 127 124 123 125 121 110 91 61 28 22 67 104 120 129 142 144 157 181 91 87 101 118 126 130 124 117
119 118 121 120 120 129 135 138 145 134 127 124 124 123 117 112 119 124 126 120 118 124 124 112 107 45 17 31 79 117 130 139 136 150 141 108 85 77 86 110 115 116 114
112 116 120 123 122 120 126 135 136 130 126 127 128 129 122 112 102 101 114 121 128 136 141 138 142 142 62 26 29 59 102 118 121 122 93 73 74 77 72 73 88 106 133
111 116 121 124 127 123 118 125 130 130 128 127 127 125 119 121 109 92 81 116 140 170 172 179 174 171 201 247 238 190 170 175 173 132 86 62 73 78 50 45 57 79 98
117 118 117 121 127 126 121 125 130 130 131 133 134 133 129 125 124 119 88 47 46 47 118 145 152 163 192 193 194 187 170 170 156 130 142 166 172 173 171 159 122 89 118
Height
1528 1530 1533 1536 1539 1541 1543 1545 1547 1550 1552 1554 1556 1558 1560 1561 1563 1565 1566 1568 1569 1570 1572 1573 1574 1575 1577 1578 1579 1580 1581 1582 1583 1583 1584 1584 1584 1584 1584 1584 1584 1585 1585
1527 1530 1532 1535 1537 1539 1542 1544 1546 1548 1550 1552 1555 1557 1559 1560 1562 1564 1565 1566 1567 1568 1570 1571 1572 1574 1575 1576 1577 1578 1579 1580 1581 1582 1582 1582 1583 1582 1582 1582 1582 1582 1583
1524 1528 1531 1533 1535 1538 1540 1542 1545 1547 1549 1551 1553 1555 1557 1559 1560 1561 1563 1564 1565 1566 1567 1569 1570 1572 1573 1574 1575 1576 1577 1578 1579 1580 1580 1580 1579 1579 1579 1579 1579 1580 1580
1522 1525 1529 1531 1533 1536 1539 1541 1544 1546 1548 1550 1551 1552 1554 1556 1557 1559 1561 1562 1563 1564 1565 1567 1568 1569 1570 1571 1573 1574 1575 1576 1576 1577 1577 1578 1578 1578 1577 1577 1577 1577 1577
1520 1523 1526 1529 1532 1535 1537 1540 1542 1544 1546 1547 1549 1550 1552 1554 1556 1557 1559 1560 1561 1562 1563 1564 1565 1566 1567 1569 1570 1571 1572 1573 1573 1574 1574 1575 1575 1575 1575 1574 1574 1574 1574
1520 1523 1526 1529 1531 1534 1537 1539 1541 1542 1544 1545 1547 1549 1550 1551 1553 1555 1556 1558 1559 1560 1561 1562 1562 1563 1564 1565 1567 1568 1569 1569 1570 1570 1571 1571 1571 1571 1571 1571 1570 1570 1571
1520 1522 1525 1527 1530 1532 1534 1537 1539 1540 1542 1543 1545 1547 1548 1549 1550 1552 1554 1555 1556 1557 1558 1559 1559 1560 1561 1562 1563 1564 1565 1565 1566 1566 1567 1567 1568 1568 1568 1568 1567 1567 1567
1519 1522 1523 1525 1528 1530 1532 1534 1536 1538 1540 1541 1543 1545 1546 1548 1549 1550 1552 1553 1554 1555 1556 1557 1557 1558 1559 1559 1560 1560 1561 1561 1562 1562 1563 1563 1564 1564 1564 1564 1564 1564 1564
1518 1521 1522 1524 1526 1528 1530 1532 1534 1536 1538 1540 1542 1543 1544 1546 1547 1548 1550 1551 1552 1553 1554 1554 1555 1555 1556 1556 1557 1557 1557 1557 1557 1558 1558 1559 1559 1559 1560 1560 1560 1561 1559
1518 1519 1522 1523 1526 1527 1529 1531 1533 1534 1536 1538 1540 1542 1543 1544 1546 1547 1548 1549 1550 1550 1551 1552 1552 1553 1553 1553 1554 1554 1554 1554 1554 1554 1554 1554 1555 1555 1555 1555 1556 1556 1556
1517 1519 1521 1524 1526 1527 1529 1531 1532 1533 1535 1537 1539 1540 1542 1543 1544 1545 1546 1547 1547 1548 1549 1549 1550 1550 1550 1551 1551 1551 1551 1551 1550 1550 1550 1550 1550 1550 1551 1551 1551 1551 1551
1516 1518 1521 1524 1525 1527 1528 1530 1532 1533 1534 1536 1538 1539 1540 1541 1542 1543 1544 1545 1545 1546 1546 1547 1547 1547 1547 1548 1548 1548 1548 1547 1547 1547 1547 1546 1546 1546 1546 1546 1546 1546 1546
1515 1518 1521 1523 1525 1527 1529 1530 1532 1533 1534 1535 1537 1538 1539 1540 1541 1541 1542 1543 1543 1544 1544 1544 1544 1545 1545 1545 1545 1545 1545 1544 1544 1543 1543 1543 1542 1542 1542 1542 1542 1542 1542
1514 1517 1520 1522 1524 1526 1528 1530 1531 1533 1534 1535 1536 1537 1538 1539 1540 1540 1541 1541 1541 1542 1542 1542 1542 1542 1543 1543 1542 1542 1542 1541 1541 1540 1540 1539 1539 1538 1538 1538 1538 1538 1538
1512 1515 1519 1521 1523 1526 1527 1529 1531 1532 1533 1534 1535 1536 1537 1538 1538 1539 1539 1539 1540 1540 1540 1541 1540 1540 1540 1540 1540 1540 1539 1539 1538 1538 1537 1537 1536 1536 1535 1535 1535 1535 1535
1511 1514 1517 1519 1522 1524 1526 1527 1529 1531 1532 1533 1533 1534 1536 1536 1537 1537 1538 1538 1538 1539 1539 1539 1539 1539 1538 1538 1538 1537 1537 1536 1536 1536 1535 1535 1534 1534 1534 1533 1533 1533 1532
1510 1513 1515 1518 1520 1522 1524 1526 1527 1529 1530 1531 1532 1532 1533 1535 1536 1536 1537 1537 1537 1537 1537 1537 1537 1537 1537 1537 1536 1536 1535 1535 1534 1534 1534 1534 1533 1533 1532 1531 1531 1530 1530
1510 1512 1515 1517 1519 1522 1523 1525 1526 1527 1528 1530 1531 1532 1533 1534 1535 1535 1535 1536 1536 1536 1536 1536 1536 1536 1535 1535 1535 1535 1534 1533 1533 1533 1533 1533 1532 1532 1531 1530 1529 1529 1529
1507 1510 1513 1516 1518 1520 1522 1523 1524 1526 1527 1528 1530 1531 1532 1533 1534 1534 1534 1535 1535 1535 1535 1535 1534 1534 1534 1534 1534 1534 1533 1532 1531 1531 1532 1532 1531 1531 1531 1530 1529 1528 1528
1506 1508 1512 1515 1517 1519 1521 1522 1523 1525 1526 1527 1528 1530 1531 1532 1533 1533 1534 1534 1535 1534 1534 1533 1533 1533 1533 1533 1533 1532 1532 1531 1531 1531 1531 1531 1530 1530 1530 1529 1529 1528 1528
1505 1508 1511 1513 1515 1517 1519 1520 1521 1523 1525 1526 1528 1529 1530 1531 1532 1533 1533 1534 1534 1533 1533 1532 1532 1532 1532 1532 1531 1531 1531 1530 1530 1530 1530 1530 1530 1530 1530 1529 1529 1528 1528
1506 1509 1510 1512 1515 1516 1517 1519 1521 1522 1524 1526 1527 1528 1529 1530 1531 1532 1532 1533 1532 1532 1532 1532 1531 1531 1531 1530 1530 1530 1529 1529 1529 1528 1529 1529 1529 1529 1529 1528 1528 1528 1528
1507 1509 1510 1512 1514 1516 1517 1518 1520 1521 1523 1524 1525 1527 1528 1529 1529 1530 1531 1531 1531 1531 1531 1530 1530 1530 1529 1529 1528 1528 1528 1528 1527 1527 1527 1527 1528 1528 1527 1527 1527 1527 1527
1507 1509 1511 1512 1513 1515 1517 1518 1519 1520 1521 1523 1524 1525 1526 1527 1528 1528 1529 1529 1529 1529 1529 1529 1528 1528 1528 1527 1527 1526 1526 1526 1526 1526 1526 1526 1526 1527 1527 1526 1526 1526 1526
1508 1510 1511 1512 1513 1515 1516 1517 1518 1520 1520 1521 1522 1524 1525 1525 1526 1527 1527 1528 1528 1528 1528 1527 1527 1526 1526 1526 1525 1525 1524 1524 1524 1524 1524 1524 1525 1525 1525 1525 1525 1525 1525
1508 1509 1510 1511 1513 1514 1515 1516 1517 1518 1519 1519 1521 1522 1522 1523 1524 1525 1525 1526 1526 1526 1526 1525 1525 1524 1524 1524 1523 1523 1523 1523 1523 1523 1522 1523 1523 1523 1524 1524 1524 1524 1524